Location: Coed Ely
(51.5661°N, 3.4150°W)
Time: 23:47:45
(UTC+00:00)

Cosmos 1844 - Pass Details

Date: 28 January 2021
Orbit: 821 x 869 km, 70.9° (Epoch: 01 March)

Event Time Altitude Azimuth Distance (km) Brightness Sun altitude
Rises 17:37:53 0° 203° (SSW) 3,387 7.6 -6.7°
Reaches altitude 10° 17:40:18 10° 202° (SSW) 2,464 6.8 -7.1°
Maximum altitude 17:45:57 78° 117° (ESE) 878 3.7 -7.9°
Drops below altitude 10° 17:51:44 10° 32° (NNE) 2,511 5.7 -8.8°
Enters shadow 17:53:33 - 32° (NNE) 3,199 6.3 -9.0°
